Location: Acton
(51.4942°N, 0.2232°W)
Time: 01:25:46
(UTC+00:00)

ARIANE 5 R/B - Pass Details

Date: 18 September 2020
Orbit: 620 x 657 km, 98.2° (Epoch: 23 October)

Event Time Altitude Azimuth Distance (km) Brightness Sun altitude
Exits shadow 19:37:43 20° 83° (E) 1,448 3.9 -14.5°
Maximum altitude 19:38:50 22° 60° (ENE) 1,362 4.0 -14.7°
Drops below altitude 10° 19:42:12 10° 10° (N) 2,003 5.3 -15.2°
Sets 19:44:45 0° 355° (N) 2,913 6.4 -15.5°
